This is the latest recevied weather packets stored in our database for station/object NN3A-3. If no packets are shown the sender has not sent any weather packets the latest 10 day(s).
| Time | Temp. | Humidity | Pressure | Rain* | Wind** | Luminosity | Snow |
|---|---|---|---|---|---|---|---|
| 1778185298 | 16.67° C | 61% | 1006.9 hPa | 0 mm | - | - | - |
| 1778184999 | 17.22° C | 61% | 1007.2 hPa | 0 mm | - | - | - |
| 1778184699 | 17.22° C | 63% | 1006.9 hPa | 0 mm | - | - | - |
| 1778184099 | 17.22° C | 61% | 1007.2 hPa | 0 mm | - | - | - |
| 1778183799 | 17.78° C | 60% | 1007.2 hPa | 0 mm | - | - | - |
| 1778183499 | 17.22° C | 61% | 1007.6 hPa | 0 mm | - | - | - |
| 1778183199 | 17.78° C | 61% | 1007.2 hPa | 0 mm | - | - | - |
| 1778182900 | 16.67° C | 61% | 1007.2 hPa | 0 mm | - | - | - |
| 1778182300 | 17.78° C | 61% | 1007.6 hPa | 0 mm | - | - | - |
| 1778181400 | 16.67° C | 61% | 1007.6 hPa | 0 mm | - | - | - |
| 1778180501 | 16.11° C | 61% | 1007.6 hPa | 0 mm | - | - | - |
| 1778180202 | 17.22° C | 59% | 1007.6 hPa | 0 mm | - | - | - |
| 1778179901 | 17.78° C | 61% | 1007.9 hPa | 0 mm | - | - | - |
| 1778179601 | 16.67° C | 61% | 1007.6 hPa | 0 mm | - | - | - |
| 1778179302 | 17.22° C | 60% | 1007.9 hPa | 0 mm | - | - | - |
| 1778178402 | 17.22° C | 61% | 1007.6 hPa | 0 mm | - | - | - |
| 1778178101 | 17.78° C | 60% | 1007.6 hPa | 0 mm | - | - | - |
| 1778177802 | 18.33° C | 60% | 1007.6 hPa | 0 mm | - | - | - |
| 1778177501 | 18.33° C | 61% | 1007.6 hPa | 0 mm | - | - | - |
| 1778177203 | 18.33° C | 61% | 1007.6 hPa | 0 mm | - | - | - |
| 1778176603 | 17.22° C | 62% | 1007.9 hPa | 0 mm | - | - | - |
| 1778176003 | 17.22° C | 60% | 1008.3 hPa | 0 mm | - | - | - |
| 1778174803 | 17.78° C | 61% | 1008.6 hPa | 0 mm | - | - | - |
| 1778174504 | 17.78° C | 59% | 1008.6 hPa | 0 mm | - | - | - |
| 1778174204 | 18.33° C | 63% | 1008.6 hPa | 0 mm | - | - | - |
* Rain latest hour (hover to see other rain measurements)
** Current wind speed in m/s (hover to see current wind gust speed)